Weather History for Bloomington, IN

Change the Weather History Date:

Thursday, April 3, 2014

  Actual Average Record
Temperature  
Mean Temperature 59 °F 50 °F  
Max Temperature 65 °F 61 °F 84 °F (2012)
Min Temperature 53 °F 38 °F 20 °F (2013)
Degree Days  
Heating Degree Days 6 16  
Month to date heating degree days 29 48  
Since 1 July heating degree days 5428 4804  
Cooling Degree Days 0 0  
Month to date cooling degree days 0 0  
Year to date cooling degree days 0 3  
Growing Degree Days 8 (Base 50)    
Moisture  
Dew Point 54 °F    
Average Humidity 89    
Maximum Humidity 100    
Minimum Humidity 78    
Precipitation  
Precipitation 1.74 in 0.14 in 1.74 in (2014)
Month to date precipitation 3.02 0.46  
Year to date precipitation 9.61 10.41  
Sea Level Pressure  
Sea Level Pressure 29.82 in    
Wind  
Wind Speed 10 mph (SSE)    
Max Wind Speed 25 mph    
Max Gust Speed 39 mph    
Visibility 7 miles    
Events Rain , Thunderstorm    
T = Trace of Precipitation, MM = Missing Value Source: NWS Daily Summary

Daily Weather History Graph

Daily Weather History Graph

Search for Another Location

Airport:

Trip Planner

Search our weather history database for the weather conditions in past years. The results will help you decide how hot, cold, wet, or windy it might be!

Date:

Astronomy

Apr. 03, 2014 Rise Set
Actual Time 7:27 AM EDT 8:12 PM EDT
Civil Twilight 7:00 AM EDT 8:39 PM EDT
Nautical Twilight 6:28 AM EDT 9:11 PM EDT
Astronomical Twilight 5:55 AM EDT 9:44 PM EDT
Moon 9:57 AM EDT (4/3) No Moon Set
Length of Visible Light 13h 38m
Length of Day
12h 44m
Waxing Crescent, 17% of the Moon is Illuminated
Apr 3
Waxing Crescent
Apr 7
First Quarter
Apr 15
Full
Apr 22
Last Quarter
Apr 29
New

Hourly Weather History & Observations

Time (EDT) Temp. Dew Point Humidity Pressure Visibility Wind Dir Wind Speed Gust Speed Precip Events Conditions
12:01 AM 54.0 °F 51.1 °F 90% 29.98 in 10.0 mi ESE 10.4 mph - 0.00 in Rain , Thunderstorm Light Rain
12:14 AM 53.1 °F 51.1 °F 93% 29.98 in 10.0 mi SE 6.9 mph - 0.01 in Rain Light Rain
12:29 AM 54.0 °F 51.1 °F 90% 29.98 in 10.0 mi East 4.6 mph - 0.01 in Thunderstorm Overcast
12:44 AM 53.1 °F 51.1 °F 93% 29.98 in 10.0 mi ESE 5.8 mph - 0.01 in   Overcast
12:53 AM 53.1 °F 51.1 °F 93% 29.97 in 10.0 mi ESE 5.8 mph - 0.01 in   Overcast
1:53 AM 53.1 °F 51.1 °F 93% 29.94 in 10.0 mi ESE 8.1 mph - N/A   Overcast
2:22 AM 53.1 °F 51.1 °F 93% 29.95 in 10.0 mi SE 8.1 mph - N/A   Overcast
2:53 AM 53.1 °F 51.1 °F 93% 29.94 in 10.0 mi SE 6.9 mph - N/A   Overcast
3:23 AM 53.1 °F 51.1 °F 93% 29.90 in 10.0 mi ESE 9.2 mph - N/A   Mostly Cloudy
3:51 AM 53.6 °F 51.8 °F 94% 29.91 in 6.0 mi East 4.6 mph - 0.02 in Rain Light Rain
3:52 AM 53.1 °F 51.1 °F 93% 29.91 in 6.0 mi East 4.6 mph - 0.02 in Rain Light Rain
3:59 AM 53.1 °F 51.1 °F 93% 29.91 in 8.0 mi ESE 6.9 mph - 0.01 in Rain , Thunderstorm Light Rain
4:07 AM 53.1 °F 51.1 °F 93% 29.90 in 4.0 mi ESE 8.1 mph - 0.04 in Rain , Thunderstorm Light Thunderstorms and Rain
4:16 AM 53.1 °F 51.1 °F 93% 29.91 in 6.0 mi ESE 4.6 mph - 0.05 in Rain , Thunderstorm Light Rain
4:31 AM 53.1 °F 51.1 °F 93% 29.91 in 7.0 mi ESE 4.6 mph - 0.05 in   Overcast
4:53 AM 53.1 °F 51.1 °F 93% 29.89 in 5.0 mi ESE 8.1 mph - 0.05 in   Overcast
5:26 AM 53.1 °F 52.0 °F 96% 29.86 in 6.0 mi SE 11.5 mph - 0.00 in Rain , Thunderstorm Light Rain
5:31 AM 53.1 °F 52.0 °F 96% 29.87 in 5.0 mi SSE 10.4 mph - 0.00 in Rain , Thunderstorm Light Thunderstorms and Rain
5:53 AM 54.0 °F 52.0 °F 93% 29.84 in 2.5 mi SE 10.4 mph - 0.15 in Rain , Thunderstorm Thunderstorms and Rain
6:00 AM 54.0 °F 52.0 °F 93% 29.85 in 6.0 mi SE 11.5 mph - 0.01 in Rain , Thunderstorm Light Thunderstorms and Rain
6:12 AM 54.0 °F 52.0 °F 93% 29.83 in 6.0 mi SE 8.1 mph - 0.01 in Rain Light Rain
6:21 AM 54.0 °F 52.0 °F 93% 29.83 in 8.0 mi SE 11.5 mph - 0.01 in Rain , Thunderstorm Light Rain
6:30 AM 54.0 °F 53.1 °F 97% 29.83 in 7.0 mi SSE 10.4 mph - 0.02 in Rain , Thunderstorm Light Thunderstorms and Rain
6:53 AM 55.0 °F 53.1 °F 93% 29.83 in 6.0 mi SSE 11.5 mph - 0.07 in Rain , Thunderstorm Light Thunderstorms and Rain
7:15 AM 55.0 °F 53.1 °F 93% 29.82 in 2.5 mi SE 12.7 mph - 0.17 in Rain , Thunderstorm Heavy Thunderstorms and Rain
7:23 AM 55.0 °F 53.1 °F 93% 29.82 in 8.0 mi SSE 10.4 mph - 0.17 in Rain , Thunderstorm Light Thunderstorms and Rain
7:53 AM 55.0 °F 54.0 °F 96% 29.81 in 4.0 mi SSE 16.1 mph - 0.25 in Rain , Thunderstorm Thunderstorms and Rain
8:07 AM 55.9 °F 54.0 °F 93% 29.81 in 6.0 mi SSE 12.7 mph 21.9 mph 0.02 in Rain Light Rain
8:18 AM 55.9 °F 54.0 °F 93% 29.81 in 8.0 mi SSE 12.7 mph - 0.02 in Rain , Thunderstorm Light Thunderstorms and Rain
8:28 AM 55.9 °F 54.0 °F 93% 29.80 in 7.0 mi SSE 11.5 mph - 0.02 in Thunderstorm Thunderstorm
8:39 AM 55.9 °F 54.0 °F 93% 29.80 in 6.0 mi South 11.5 mph - 0.02 in Rain , Thunderstorm Light Rain
8:47 AM 57.2 °F 55.4 °F 94% 29.79 in 8.0 mi SSE 17.3 mph - 0.02 in Thunderstorm Overcast
8:53 AM 55.9 °F 55.0 °F 97% 29.79 in 7.0 mi SE 13.8 mph - 0.02 in Rain , Thunderstorm Light Rain
9:09 AM 57.0 °F 55.0 °F 93% 29.79 in 10.0 mi South 13.8 mph 21.9 mph 0.01 in   Overcast
9:26 AM 57.9 °F 55.0 °F 90% 29.78 in 9.0 mi SSE 15.0 mph - 0.01 in Rain Light Rain
9:53 AM 57.9 °F 55.0 °F 90% 29.74 in 10.0 mi SE 15.0 mph 24.2 mph 0.01 in Rain Light Rain
10:10 AM 57.9 °F 55.0 °F 90% 29.74 in 10.0 mi SSE 13.8 mph - 0.01 in Rain , Thunderstorm Light Rain
10:29 AM 57.9 °F 55.9 °F 93% 29.77 in 9.0 mi SW 10.4 mph - 0.02 in Rain , Thunderstorm Light Thunderstorms and Rain
10:35 AM 59.0 °F 55.9 °F 90% 29.78 in 1.8 mi West 10.4 mph - 0.19 in Rain , Thunderstorm Heavy Thunderstorms and Rain
10:42 AM 59.0 °F 55.9 °F 90% 29.77 in 0.8 mi South 10.4 mph - 0.35 in Rain , Thunderstorm Heavy Thunderstorms and Rain
10:48 AM 59.0 °F 55.4 °F 88% 29.76 in 1.5 mi SSW 9.2 mph - 0.38 in Rain , Thunderstorm Thunderstorms and Rain
10:53 AM 59.0 °F 55.9 °F 90% 29.76 in 2.0 mi SSW 9.2 mph - 0.40 in Rain , Thunderstorm Rain
11:19 AM 59.0 °F 57.0 °F 93% 29.77 in 1.8 mi SSW 9.2 mph - 0.17 in Rain , Thunderstorm Heavy Rain
11:21 AM 59.0 °F 57.0 °F 93% 29.77 in 1.8 mi South 11.5 mph - 0.18 in Rain , Thunderstorm Heavy Rain
11:30 AM 59.0 °F 57.0 °F 93% 29.78 in 3.0 mi SSW 12.7 mph - 0.21 in Rain , Thunderstorm Rain
11:53 AM 60.1 °F 57.0 °F 90% 29.76 in 9.0 mi SSW 11.5 mph - 0.25 in Rain Light Rain
12:02 PM 60.1 °F 57.9 °F 93% 29.77 in 8.0 mi South 11.5 mph - 0.01 in Rain Light Rain
12:28 PM 60.1 °F 57.9 °F 93% 29.77 in 4.0 mi South 10.4 mph - 0.06 in Rain , Thunderstorm Rain
12:53 PM 60.1 °F 57.9 °F 93% 29.72 in 10.0 mi South 8.1 mph - 0.09 in Rain Light Rain
1:53 PM 62.1 °F 59.0 °F 90% 29.72 in 10.0 mi South 8.1 mph - 0.02 in Rain Light Rain
2:53 PM 64.0 °F 60.1 °F 87% 29.73 in 10.0 mi SW 13.8 mph 20.7 mph 0.01 in   Mostly Cloudy
3:53 PM 64.0 °F 59.0 °F 84% 29.69 in 10.0 mi SW 13.8 mph - 0.01 in   Partly Cloudy
4:53 PM 64.0 °F 59.0 °F 84% 29.65 in 10.0 mi SSW 11.5 mph 21.9 mph N/A   Clear
5:53 PM 64.0 °F 57.9 °F 80% 29.71 in 10.0 mi SW 15.0 mph - N/A   Clear
6:38 PM 63.0 °F 55.9 °F 78% 29.78 in 10.0 mi West 16.1 mph 27.6 mph 0.00 in Rain Light Rain
6:53 PM 61.0 °F 57.0 °F 87% 29.80 in 10.0 mi WSW 21.9 mph 32.2 mph 0.01 in Rain Light Rain
7:41 PM 60.1 °F 57.0 °F 90% 29.78 in 10.0 mi WSW 8.1 mph - 0.09 in Rain Light Rain
7:53 PM 60.1 °F 57.0 °F 90% 29.78 in 10.0 mi WNW 6.9 mph - 0.09 in   Overcast
8:53 PM 57.9 °F 55.9 °F 93% 29.73 in 10.0 mi Calm Calm - N/A   Clear
9:53 PM 57.9 °F 55.0 °F 90% 29.69 in 10.0 mi SSE 8.1 mph - N/A   Clear
11:53 PM 57.9 °F 55.0 °F 90% 29.70 in 10.0 mi South 11.5 mph - N/A   Mostly Cloudy